PBO Station Position Time Series. Reference Frame : NAM14
Format Version,1.1.1
4-character ID,P453
Station name,WilburLevaWA2005
Begin Date, 2005-10-02
End Date, 2023-06-26
Release Date, 2023-06-27
Reference position, 47.7591326999 North Latitude, -118.7454570455 East Longitude, 644.23144 meters elevation,
Date, North (mm), East (mm), Vertical (mm), North Std. Deviation (mm), East Std. Deviation (mm),              Vertical Std. Deviation (mm), Quality,
2005-10-02,0.00, 0.00, 0.00, 2.31, 1.57, 7.10, repro,
2005-10-03,1.71, 0.15, -5.18, 2.31, 1.59, 7.15, repro,
2005-10-04,0.83, 0.73, -9.69, 2.50, 1.70, 7.86, repro,
2005-10-05,2.71, 0.77, -7.49, 2.59, 1.73, 8.11, repro,
2005-10-06,1.52, 0.37, -1.90, 2.63, 1.78, 8.19, repro,
2005-10-07,0.77, 0.09, -1.57, 2.38, 1.61, 7.35, repro,
2005-10-08,-0.20, 0.50, 2.94, 2.52, 1.71, 7.88, repro,
2005-10-09,0.53, 0.86, -1.26, 2.62, 1.79, 8.32, repro,
2005-10-10,0.26, 1.09, -3.57, 2.75, 1.85, 8.40, repro,
2005-10-11,1.32, 0.86, -3.60, 2.77, 1.90, 8.65, repro,
2005-10-12,-0.76, 0.63, -0.41, 2.72, 1.84, 8.34, repro,
2005-10-13,1.32, 0.63, -2.98, 2.68, 1.85, 8.33, repro,
2005-10-14,0.91, 0.56, -0.67, 2.63, 1.79, 8.15, repro,
2005-10-15,2.98, 1.40, 11.29, 4.18, 2.62, 12.36, repro,
2005-10-16,0.94, 1.00, -1.35, 2.61, 1.77, 7.95, repro,
2005-10-17,-0.40, 0.91, -1.91, 2.49, 1.70, 7.78, repro,
2005-10-18,-0.61, 1.16, 7.02, 2.98, 2.07, 9.09, repro,
2005-10-19,1.90, 0.59, -2.42, 2.38, 1.62, 7.18, repro,
2005-10-20,0.34, 0.94, -3.90, 2.46, 1.64, 7.46, repro,
2005-10-21,1.57, 1.04, -7.01, 2.62, 1.83, 8.44, repro,
2005-10-22,1.65, 0.41, -3.86, 2.57, 1.73, 7.83, repro,
2005-10-23,2.42, 1.63, -3.04, 2.65, 1.83, 8.20, repro,
2005-10-24,0.56, 2.06, -8.14, 2.60, 1.78, 7.91, repro,
2005-10-25,1.73, 0.82, 1.74, 2.68, 1.85, 8.27, repro,
2005-10-26,1.50, 1.64, 0.17, 2.43, 1.68, 7.46, repro,
2005-10-27,1.69, 0.61, -6.93, 2.31, 1.59, 7.25, repro,
2005-10-28,1.09, 1.56, 1.87, 2.29, 1.55, 7.04, repro,
2005-10-29,1.57, 0.61, 1.91, 2.30, 1.60, 7.25, repro,
2005-10-30,2.12, 1.26, -5.75, 2.32, 1.60, 7.18, repro,
2005-10-31,3.37, 1.36, -6.65, 2.42, 1.68, 7.49, repro,
2005-11-01,2.39, -0.24, -1.23, 2.50, 1.75, 7.77, repro,
2005-11-02,2.57, 0.36, -1.58, 2.47, 1.79, 7.83, repro,
2005-11-03,1.68, 0.06, -1.57, 2.38, 1.67, 7.38, repro,
2005-11-04,1.89, 1.57, 5.36, 2.39, 1.70, 7.52, repro,
2005-11-05,2.36, 1.52, -1.08, 2.44, 1.74, 7.58, repro,
2005-11-06,3.66, 0.64, -0.91, 2.45, 1.74, 7.54, repro,
2005-11-07,1.95, 0.81, -0.98, 2.47, 1.74, 7.67, repro,
2005-11-08,1.99, 0.61, -7.39, 2.42, 1.71, 7.59, repro,
2005-11-09,1.16, -0.27, -4.43, 2.56, 1.81, 7.96, repro,
2005-11-10,1.26, 0.91, -0.98, 2.59, 1.83, 8.06, repro,
2005-11-11,2.00, 0.38, -0.04, 2.56, 1.82, 7.87, repro,
2005-11-12,2.61, 1.53, 0.46, 2.34, 1.65, 7.24, repro,
2005-11-13,1.46, 1.82, -3.77, 2.49, 1.77, 7.69, repro,
2005-11-14,1.27, -1.03, -10.13, 2.34, 1.62, 7.23, repro,
2005-11-15,2.01, 0.72, -15.06, 2.31, 1.60, 7.22, repro,
2005-11-16,3.79, 0.93, -18.25, 2.34, 1.64, 7.38, repro,
2005-11-17,2.35, 0.97, -15.37, 2.28, 1.56, 7.04, repro,
2005-11-18,1.08, 0.62, -16.27, 2.28, 1.56, 7.07, repro,
2005-11-19,1.62, 0.79, -8.05, 2.30, 1.57, 7.14, repro,
2005-11-20,2.15, 0.35, -12.28, 2.31, 1.58, 7.20, repro,
2005-11-21,1.93, 0.95, -13.98, 2.38, 1.62, 7.40, repro,
2005-11-22,2.21, 1.61, -10.54, 2.38, 1.66, 7.44, repro,
2005-11-23,1.99, 0.17, -6.82, 2.31, 1.60, 7.26, repro,
2005-11-24,1.07, 0.86, -6.60, 2.34, 1.62, 7.30, repro,
2005-11-25,2.40, 0.06, -4.91, 2.33, 1.60, 7.23, repro,
2005-11-26,2.32, 1.54, -2.58, 2.40, 1.68, 7.55, repro,
2005-11-27,1.14, 0.11, -7.12, 2.29, 1.58, 7.10, repro,
2005-11-28,2.24, 0.72, -8.66, 2.36, 1.62, 7.37, repro,
2005-11-29,1.60, 0.59, -3.74, 2.37, 1.62, 7.33, repro,
2005-11-30,2.81, 0.13, -9.55, 2.37, 1.62, 7.34, repro,
2005-12-01,2.58, 0.90, -8.20, 2.29, 1.57, 7.10, repro,
2005-12-02,1.90, 1.86, -9.62, 2.29, 1.56, 7.08, repro,
2005-12-03,1.61, 0.90, -5.55, 2.29, 1.58, 7.15, repro,
2005-12-04,1.87, 0.89, -14.31, 2.31, 1.59, 7.17, repro,
2005-12-05,1.02, 2.16, -14.82, 3.32, 2.30, 10.22, repro,
2005-12-06,-1.36, -0.63, -28.09, 4.56, 3.24, 15.90, repro,
2005-12-07,-0.11, 1.11, -16.86, 2.63, 1.89, 8.53, repro,
2005-12-08,0.32, 1.78, -12.91, 2.63, 1.85, 8.48, repro,
2005-12-09,0.57, 1.25, -9.85, 2.37, 1.62, 7.41, repro,
2005-12-10,0.25, 1.42, -12.15, 2.35, 1.62, 7.32, repro,
2005-12-11,1.23, 1.18, -11.83, 2.35, 1.61, 7.26, repro,
2005-12-12,1.20, 0.70, -11.48, 2.27, 1.57, 7.09, repro,
2005-12-13,1.96, 1.24, -9.56, 2.32, 1.58, 7.20, repro,
2005-12-14,1.32, 0.91, -18.73, 2.31, 1.58, 7.15, repro,
2005-12-15,-0.84, 0.92, -14.74, 3.70, 2.62, 13.33, repro,
2005-12-16,0.34, 1.46, -4.13, 4.94, 3.35, 14.56, repro,
2005-12-17,0.16, 0.07, -11.08, 3.79, 2.76, 13.24, repro,
2005-12-18,1.47, 1.16, -15.46, 2.51, 1.80, 7.95, repro,
2005-12-19,1.10, 0.22, -10.44, 2.58, 1.77, 7.96, repro,
2005-12-20,-3.56, 0.26, -3.60, 6.18, 4.86, 20.01, repro,
2005-12-25,1.80, 0.34, 2.61, 4.64, 3.54, 18.64, repro,
2005-12-26,1.08, 0.52, -3.68, 7.73, 5.40, 24.96, repro,
2006-01-01,-1.39, -0.59, -11.74, 7.39, 4.68, 27.13, repro,
2006-01-04,3.12, 1.36, -21.91, 8.67, 6.37, 32.05, repro,
2006-01-05,4.65, -29.63, -7.69, 68.72, 75.35, 226.89, repro,
2006-01-06,1.89, -0.46, -14.71, 2.54, 1.82, 8.17, repro,
2006-01-07,1.76, -0.44, -5.59, 2.39, 1.69, 7.38, repro,
2006-01-08,1.83, 0.77, -8.04, 2.46, 1.76, 7.89, repro,
2006-01-09,1.90, 1.33, -3.34, 2.52, 1.80, 7.95, repro,
2006-01-10,2.29, 0.51, -5.61, 2.44, 1.73, 7.76, repro,
2006-01-11,1.00, 1.14, -5.22, 2.45, 1.72, 7.75, repro,
2006-01-12,2.37, 0.44, -13.64, 2.39, 1.70, 7.38, repro,
2006-01-13,1.87, 2.28, -10.39, 2.56, 1.77, 8.31, repro,
2006-01-14,3.93, 0.99, -15.37, 2.33, 1.62, 7.18, repro,
2006-01-15,1.88, -0.16, -11.10, 2.30, 1.58, 7.01, repro,
2006-01-16,2.16, 0.19, -13.66, 2.44, 1.76, 7.66, repro,
2006-01-17,1.87, 2.02, -11.93, 2.35, 1.64, 7.18, repro,
2006-01-18,2.08, 0.75, -6.42, 2.33, 1.59, 7.14, repro,
2006-01-19,1.64, 1.20, -11.07, 2.35, 1.62, 7.31, repro,
2006-01-20,1.64, 1.19, -16.95, 2.34, 1.59, 7.18, repro,
2006-01-21,1.86, 0.59, -12.05, 2.32, 1.59, 7.14, repro,
2006-01-22,1.16, 0.85, -17.92, 2.29, 1.57, 7.01, repro,
2006-01-23,0.59, 0.14, -12.20, 2.29, 1.56, 7.03, repro,
2006-01-24,1.68, 0.95, -21.06, 2.36, 1.61, 7.20, repro,
2006-01-25,1.86, 0.50, -17.29, 2.24, 1.53, 6.88, repro,
2006-01-26,1.40, 0.09, -16.66, 2.23, 1.52, 6.81, repro,
2006-01-27,2.35, 1.49, -9.68, 2.23, 1.53, 6.86, repro,
2006-01-28,1.45, 1.34, -12.96, 2.24, 1.53, 6.92, repro,
2006-01-29,1.29, 1.33, -13.56, 2.25, 1.54, 6.97, repro,
2006-01-30,1.82, 2.39, -10.19, 2.24, 1.53, 6.94, repro,
2006-01-31,0.42, 0.58, -14.75, 2.24, 1.53, 6.93, repro,
2006-02-01,1.65, 1.66, -8.24, 2.23, 1.51, 6.85, repro,
2006-02-02,1.11, 0.07, -9.07, 2.23, 1.52, 6.90, repro,
2006-02-03,0.12, 0.21, -7.82, 2.24, 1.52, 6.94, repro,
2006-02-04,1.41, 0.25, -12.14, 2.25, 1.53, 7.01, repro,
2006-02-05,1.24, 0.61, -19.57, 2.25, 1.53, 7.01, repro,
2006-02-06,0.93, 1.39, -19.81, 2.25, 1.52, 6.96, repro,
2006-02-07,0.33, -0.03, -20.64, 2.24, 1.52, 6.90, repro,
2006-02-08,0.74, 0.15, -22.02, 2.24, 1.52, 6.93, repro,
2006-02-09,1.15, 0.24, -22.25, 2.31, 1.53, 6.99, repro,
2006-02-10,1.83, 0.84, -25.37, 2.41, 1.57, 7.16, repro,
2006-02-11,1.53, 0.53, -28.75, 2.27, 1.53, 7.06, repro,
2006-02-12,1.63, 0.62, -23.43, 2.25, 1.51, 6.95, repro,
2006-02-13,1.30, -0.04, -19.47, 2.25, 1.53, 7.00, repro,
2006-02-14,1.18, 0.68, -13.41, 2.24, 1.52, 6.97, repro,
2006-02-15,1.79, 0.61, -18.40, 2.25, 1.52, 6.97, repro,
2006-02-16,2.67, 0.72, -21.83, 2.26, 1.53, 7.02, repro,
2006-02-17,1.54, 0.37, -22.35, 2.27, 1.52, 7.00, repro,
2006-02-18,0.47, 0.39, -19.08, 2.26, 1.52, 6.99, repro,
2006-02-19,1.54, 0.69, -16.84, 2.28, 1.54, 7.03, repro,
2006-02-20,1.20, -0.12, -11.44, 2.26, 1.53, 6.99, repro,
2006-02-21,0.78, 0.69, -9.98, 2.24, 1.53, 6.93, repro,
2006-02-22,0.39, 0.34, -8.04, 2.28, 1.54, 7.05, repro,
2006-02-23,0.37, -0.13, -10.47, 2.26, 1.53, 6.96, repro,
2006-02-24,2.63, 0.33, -17.13, 2.24, 1.53, 6.94, repro,
2006-02-25,1.29, 0.70, -20.37, 2.24, 1.53, 6.95, repro,
2006-02-26,2.27, 0.78, -13.66, 2.24, 1.53, 6.95, repro,
2006-02-27,1.95, 0.87, -6.14, 2.24, 1.52, 6.90, repro,
2006-02-28,2.07, 1.20, -4.69, 2.28, 1.55, 7.03, repro,
2006-03-01,0.61, 1.45, -12.63, 2.35, 1.59, 7.27, repro,
2006-03-02,1.03, 0.63, -11.63, 2.25, 1.54, 6.96, repro,
2006-03-03,2.30, 0.23, -11.70, 2.32, 1.55, 7.14, repro,
2006-03-04,2.29, 0.56, -14.35, 2.23, 1.53, 6.91, repro,
2006-03-05,1.55, 0.94, -15.02, 2.23, 1.53, 6.93, repro,
2006-03-06,0.55, -0.36, -15.44, 2.25, 1.53, 6.96, repro,
2006-03-07,1.74, -0.39, -10.39, 2.23, 1.53, 6.96, repro,
2006-03-08,2.42, 1.00, -12.93, 2.24, 1.54, 6.97, repro,
2006-03-09,1.79, 0.78, -2.46, 2.23, 1.54, 6.93, repro,
2006-03-10,2.03, -0.28, -6.10, 2.23, 1.53, 6.89, repro,
2006-03-11,2.57, 0.08, -10.31, 2.27, 1.55, 7.06, repro,
2006-03-12,2.20, 0.34, -14.56, 2.27, 1.54, 7.04, repro,
2006-03-13,1.52, 0.09, -13.15, 2.28, 1.57, 7.17, repro,
2006-03-14,2.58, 0.54, -8.63, 2.29, 1.57, 7.16, repro,
2006-03-15,1.88, 0.69, -12.29, 2.28, 1.56, 7.11, repro,
2006-03-16,1.65, 1.57, -17.95, 2.36, 1.59, 7.32, repro,
2006-03-17,1.72, 0.98, -18.70, 2.36, 1.59, 7.38, repro,
2006-03-18,2.61, 0.75, -16.84, 2.28, 1.56, 7.16, repro,
2006-03-19,4.58, -1.22, -22.85, 2.29, 1.57, 7.20, repro,
2006-03-20,2.79, -0.05, -13.11, 2.28, 1.58, 7.17, repro,
2006-03-21,2.24, 0.51, -12.93, 2.28, 1.57, 7.16, repro,
2006-03-22,1.64, 0.69, -18.97, 2.30, 1.58, 7.16, repro,
2006-03-23,2.18, 0.55, -21.33, 2.34, 1.59, 7.20, repro,
2006-03-24,2.06, 0.43, -14.03, 2.33, 1.60, 7.19, repro,
2006-03-25,2.28, 0.18, -4.08, 2.33, 1.60, 7.19, repro,
2006-03-26,2.04, -1.00, -11.25, 2.34, 1.60, 7.24, repro,
2006-03-27,0.89, 0.45, -14.39, 2.35, 1.61, 7.33, repro,
2006-03-28,1.64, 0.71, -9.54, 2.26, 1.57, 7.07, repro,
2006-03-29,1.69, 0.08, -12.62, 2.19, 1.55, 6.95, repro,
2006-03-30,1.71, -0.00, -9.28, 2.19, 1.54, 6.89, repro,
2006-03-31,1.50, -0.21, -8.82, 2.21, 1.54, 6.95, repro,
2006-04-01,1.20, 0.03, -10.95, 2.22, 1.56, 7.02, repro,
2006-04-02,1.45, 1.03, -14.52, 2.24, 1.56, 7.05, repro,
2006-04-03,1.13, 0.78, -12.85, 2.21, 1.55, 6.95, repro,
2006-04-04,2.24, -0.26, -10.13, 2.21, 1.54, 6.94, repro,
2006-04-05,1.70, -0.29, -8.85, 2.19, 1.54, 6.91, repro,
2006-04-06,1.74, -0.20, -7.61, 2.23, 1.58, 7.13, repro,
2006-04-07,0.86, 1.00, -11.21, 2.35, 1.61, 7.43, repro,
2006-04-08,0.50, -0.49, -9.19, 2.37, 1.59, 7.38, repro,
2006-04-09,0.94, 0.00, -10.59, 2.21, 1.55, 6.97, repro,
2006-04-10,0.49, -0.41, -7.57, 2.20, 1.54, 6.92, repro,
2006-04-11,1.49, -0.32, -5.32, 2.25, 1.57, 7.16, repro,
2006-04-12,2.44, 0.06, -9.23, 2.32, 1.64, 7.35, repro,
2006-04-13,-0.07, -0.09, -7.67, 2.23, 1.55, 7.07, repro,
2006-04-14,0.75, 0.98, -5.38, 2.21, 1.55, 7.01, repro,
2006-04-15,1.77, -0.45, 1.64, 2.26, 1.58, 7.14, repro,
2006-04-16,2.57, -0.20, -2.05, 2.19, 1.54, 6.91, repro,
2006-04-17,1.38, -0.01, -6.26, 2.19, 1.54, 6.95, repro,
2006-04-18,1.28, -0.13, -13.10, 2.21, 1.55, 7.05, repro,
2006-04-19,0.94, 0.53, -12.50, 2.23, 1.55, 7.05, repro,
2006-04-20,1.14, 0.54, -8.68, 2.26, 1.58, 7.13, repro,
2006-04-21,3.22, 0.39, -7.67, 3.03, 2.19, 9.53, repro,
2006-04-22,3.27, 1.19, -12.34, 2.73, 1.99, 9.11, repro,
2006-04-23,3.11, 0.15, -14.72, 2.41, 1.75, 7.96, repro,
2006-04-24,2.35, 0.48, -10.00, 2.48, 1.76, 8.05, repro,
2006-04-25,1.35, 0.80, -10.88, 2.25, 1.59, 7.14, repro,
2006-04-26,3.86, -0.08, -6.11, 2.97, 2.18, 9.69, repro,
2006-04-27,1.66, -1.01, -12.53, 2.39, 1.66, 7.53, repro,
2006-04-28,2.69, 0.75, -11.97, 2.98, 2.03, 9.19, repro,
2006-04-29,2.59, 2.18, -8.83, 3.14, 2.14, 9.63, repro,
2006-04-30,5.82, -1.14, -7.57, 3.93, 2.68, 12.13, repro,
2006-05-01,2.10, -1.07, -12.76, 4.11, 2.86, 12.98, repro,
2006-05-02,2.82, -1.18, -13.72, 2.52, 1.85, 8.44, repro,
2006-05-03,2.10, 0.10, -10.34, 2.96, 2.07, 9.25, repro,
2006-05-04,1.25, 1.18, -12.80, 3.02, 2.09, 9.34, repro,
2006-05-05,0.79, 2.25, -3.27, 3.22, 2.16, 9.77, repro,
2006-05-06,1.12, 0.30, -7.75, 3.28, 2.30, 10.06, repro,
2006-05-07,4.92, 0.56, -8.75, 7.35, 4.31, 20.92, repro,
2006-05-08,2.82, -0.31, -9.98, 3.49, 2.46, 10.75, repro,
2006-05-09,2.62, -0.08, -10.90, 2.95, 1.97, 8.84, repro,
2006-05-10,1.25, -0.22, -13.71, 3.03, 2.06, 9.30, repro,
2006-05-11,3.13, 0.69, -6.87, 3.24, 2.24, 9.99, repro,
2006-05-12,2.13, 1.86, -7.94, 3.39, 2.35, 10.42, repro,
2006-05-13,4.19, 0.74, -14.28, 3.38, 2.38, 10.37, repro,
2006-05-14,3.50, 0.75, -14.77, 3.09, 2.10, 9.38, repro,
2006-05-15,3.63, 1.30, -15.13, 3.01, 2.03, 9.02, repro,
2006-05-16,1.69, 0.45, -12.19, 3.07, 2.12, 9.50, repro,
2006-05-17,2.30, -0.33, -5.07, 2.89, 1.97, 8.83, repro,
2006-05-18,1.65, -0.14, 4.00, 2.97, 1.94, 8.65, repro,
2006-05-19,4.23, 1.71, -8.12, 2.65, 1.76, 7.88, repro,
2006-05-20,5.24, 3.72, 7.09, 5.69, 3.68, 15.95, repro,
2006-05-21,2.07, -1.55, -12.07, 5.47, 3.70, 16.96, repro,
2006-05-22,2.63, 17.44, -27.92, 23.05, 24.60, 52.93, repro,
2006-05-23,2.93, 4.43, -10.71, 8.39, 4.13, 19.84, repro,
2006-05-24,0.77, 0.28, 1.59, 2.43, 1.68, 7.79, repro,
2006-05-25,1.21, 0.15, -9.95, 2.41, 1.62, 7.42, repro,
2006-05-26,1.79, 0.92, -5.61, 2.35, 1.59, 7.31, repro,
2006-05-27,2.50, 1.21, -3.78, 2.31, 1.57, 7.20, repro,
2006-05-28,3.53, -0.27, -10.55, 2.55, 1.71, 7.75, repro,
2006-05-29,1.16, 0.80, -9.16, 2.29, 1.57, 7.12, repro,
2006-05-30,3.67, 0.97, -15.26, 2.90, 1.94, 8.49, repro,
2006-05-31,3.06, 1.24, -13.31, 2.94, 1.94, 8.56, repro,
2006-06-01,1.67, 0.81, -13.66, 2.35, 1.61, 7.34, repro,
2006-06-02,2.88, 0.66, -12.46, 2.76, 1.81, 8.08, repro,
2006-06-03,2.43, -0.34, -1.61, 2.99, 1.97, 8.77, repro,
2006-06-04,1.37, -0.07, -6.91, 2.86, 1.90, 8.32, repro,
2006-06-05,2.77, 1.47, -4.02, 2.78, 1.86, 8.38, repro,
2006-06-06,3.15, -0.19, -13.80, 2.50, 1.71, 7.67, repro,
2006-06-07,1.03, 0.71, -13.36, 2.52, 1.70, 7.65, repro,
2006-06-08,1.72, 0.33, -11.35, 2.38, 1.62, 7.40, repro,
2006-06-09,1.90, 2.09, -9.34, 3.16, 2.05, 9.02, repro,
2006-06-10,6.58, 0.36, -12.49, 3.12, 2.03, 8.88, repro,
2006-06-11,-0.58, 2.82, -13.00, 2.93, 2.00, 8.71, repro,
2006-06-12,2.10, -0.36, -11.56, 2.87, 1.94, 8.57, repro,
2006-06-13,2.84, 0.19, -8.49, 2.72, 1.79, 7.90, repro,
2006-06-14,1.07, 0.13, -5.52, 2.29, 1.55, 7.06, repro,
2006-06-15,2.94, 0.66, -5.76, 2.67, 1.78, 7.94, repro,
2006-06-16,2.05, 0.31, -7.13, 2.97, 1.99, 8.68, repro,
2006-06-17,-0.03, 1.32, -4.19, 2.90, 1.97, 8.55, repro,
2006-06-18,-0.25, 2.76, -14.41, 3.15, 2.11, 9.12, repro,
2006-06-19,0.81, 0.87, -5.25, 3.02, 2.03, 8.86, repro,
2006-06-20,1.61, -0.57, -11.37, 3.19, 2.10, 9.13, repro,
2006-06-21,2.33, -0.32, -6.95, 3.18, 2.14, 9.16, repro,
2006-06-22,-0.35, 0.05, -15.02, 3.12, 2.09, 9.08, repro,
2006-06-23,3.09, 2.24, -18.96, 3.09, 2.06, 8.90, repro,
2006-06-24,3.03, 0.84, -20.13, 3.02, 2.00, 8.71, repro,
2006-06-25,3.11, 1.18, -20.78, 2.88, 1.92, 8.39, repro,
2006-06-26,3.28, -0.73, -14.52, 2.45, 1.69, 7.72, repro,
2006-06-27,1.84, 0.71, -6.10, 2.63, 1.84, 8.07, repro,
2006-06-28,1.34, 1.20, -3.20, 2.63, 1.83, 8.11, repro,
2006-06-29,0.56, 0.53, -4.93, 2.92, 1.99, 8.67, repro,
2006-06-30,1.74, 0.70, -4.10, 2.88, 1.91, 8.44, repro,
2006-07-01,2.32, 0.47, -4.96, 2.56, 1.75, 7.83, repro,
2006-07-02,2.03, 1.05, 0.02, 2.76, 1.88, 8.25, repro,
2006-07-03,0.26, 1.47, -8.13, 2.35, 1.65, 7.38, repro,
2006-07-04,0.40, -0.08, -6.13, 2.31, 1.62, 7.30, repro,
2006-07-05,0.45, 1.46, -3.33, 2.43, 1.70, 7.67, repro,
2006-07-06,2.55, 0.79, -2.24, 2.27, 1.56, 7.14, repro,
2006-07-07,4.38, 1.31, -16.05, 2.86, 1.92, 8.45, repro,
2006-07-08,3.59, 1.00, -18.08, 2.84, 1.93, 8.48, repro,
2006-07-09,3.24, 0.59, -9.20, 2.64, 1.81, 8.11, repro,
2006-07-10,1.30, 0.31, -9.17, 2.30, 1.59, 7.32, repro,
2006-07-11,2.39, 1.60, -8.23, 2.71, 1.85, 8.43, repro,
2006-07-12,3.01, 1.75, -9.21, 2.90, 1.95, 8.64, repro,
2006-07-13,2.53, 3.51, 3.99, 2.85, 1.92, 8.55, repro,
2006-07-14,3.51, 2.03, -8.37, 2.83, 1.91, 8.56, repro,
2006-07-15,2.56, 0.98, -4.57, 2.79, 1.87, 8.47, repro,
2006-07-16,-0.40, 1.06, -5.02, 2.66, 1.79, 8.17, repro,
2006-07-17,1.70, 0.62, -10.90, 2.82, 1.92, 8.55, repro,
2006-07-18,-0.81, 0.88, -1.41, 2.92, 1.97, 8.64, repro,
2006-07-19,0.57, 2.86, -4.56, 2.87, 1.92, 8.50, repro,
2006-07-20,0.69, 2.37, -7.85, 2.71, 1.83, 8.27, repro,
2006-07-21,0.62, 2.18, -8.30, 2.21, 1.53, 6.93, repro,
2006-07-22,0.85, 0.96, -8.11, 2.21, 1.53, 6.95, repro,
2006-07-23,2.47, 0.76, -3.42, 2.21, 1.53, 6.94, repro,
2006-07-24,1.04, 0.93, 3.38, 2.21, 1.54, 6.96, repro,
2006-07-25,0.73, 1.39, 1.48, 2.43, 1.67, 7.67, repro,
2006-07-26,0.07, 1.23, -4.17, 2.56, 1.75, 8.04, repro,
2006-07-27,0.25, 0.61, -4.85, 2.52, 1.74, 7.97, repro,
2006-07-28,-0.18, 0.85, -4.95, 2.55, 1.76, 8.10, repro,
2006-07-29,1.13, 0.83, 0.35, 2.86, 1.93, 8.76, repro,
2006-07-30,-0.36, -0.33, 4.46, 2.93, 1.98, 9.05, repro,
2006-07-31,0.22, -0.14, 1.52, 3.23, 2.12, 9.31, repro,
2006-08-01,1.20, -0.85, 2.79, 3.18, 2.08, 9.22, repro,
2006-08-02,1.41, -0.66, -5.96, 3.11, 2.07, 9.29, repro,
2006-08-03,1.01, 0.01, -3.36, 3.13, 2.09, 9.40, repro,
2006-08-04,1.71, 0.56, -8.14, 3.20, 2.09, 9.60, repro,
2006-08-05,-0.30, 0.01, -2.99, 2.79, 1.89, 8.75, repro,
2006-08-06,1.62, -0.40, -3.62, 2.99, 2.01, 9.25, repro,
2006-08-07,0.58, 0.86, -1.39, 2.83, 1.92, 8.67, repro,
2006-08-08,2.32, 0.06, -4.34, 2.20, 1.54, 6.99, repro,
2006-08-09,0.61, 1.13, -4.61, 2.75, 1.88, 8.68, repro,
2006-08-10,1.41, -0.69, 0.75, 2.75, 1.85, 8.40, repro,
2006-08-11,-2.04, -0.64, -6.26, 2.85, 1.92, 8.84, repro,
2006-08-12,-0.08, -1.76, 1.16, 3.07, 2.03, 9.33, repro,
2006-08-13,-0.07, -1.44, -1.56, 2.96, 2.01, 9.12, repro,
2006-08-14,-0.25, -0.30, -8.66, 2.93, 1.96, 9.05, repro,
2006-08-15,1.44, -1.96, -0.71, 2.90, 1.96, 8.88, repro,
2006-08-16,1.57, -0.24, -14.01, 3.05, 2.05, 9.36, repro,
2006-08-17,1.85, 0.98, -2.62, 2.77, 1.89, 8.78, repro,
2006-08-18,-0.23, 1.41, -5.36, 2.99, 2.05, 9.28, repro,
2006-08-19,0.47, 1.22, -2.91, 2.91, 1.96, 8.96, repro,
2006-08-20,1.54, 0.53, 0.78, 2.87, 1.93, 8.77, repro,
2006-08-21,2.24, 1.19, -4.12, 2.89, 1.94, 8.87, repro,
2006-08-22,1.48, 0.69, 1.27, 2.21, 1.56, 7.01, repro,
2006-08-23,-0.07, 2.64, 5.11, 2.87, 1.93, 8.94, repro,
2006-08-24,-0.17, 1.02, -0.07, 2.95, 2.00, 9.14, repro,
2006-08-25,-0.32, 1.95, 9.88, 2.83, 1.93, 8.89, repro,
2006-08-26,-0.07, 1.12, -1.43, 3.07, 2.09, 9.50, repro,
2006-08-27,0.61, 0.44, -0.87, 2.97, 2.06, 9.35, repro,
2006-08-28,0.20, 0.72, -3.07, 2.96, 2.05, 9.30, repro,
2006-08-29,1.58, 1.22, 0.54, 2.60, 1.85, 8.48, repro,
2006-08-30,1.16, 0.18, -3.00, 3.59, 2.42, 10.84, repro,
2006-08-31,0.77, 1.15, -0.54, 3.75, 2.50, 11.08, repro,
2006-09-01,1.55, 0.10, -6.27, 3.58, 2.36, 10.68, repro,
2006-09-02,0.62, 1.28, -1.32, 3.33, 2.25, 10.35, repro,
2006-09-03,2.05, 1.18, -1.15, 3.15, 2.16, 9.84, repro,
2006-09-04,2.27, 0.42, 0.20, 2.43, 1.70, 7.80, repro,
2006-09-05,1.09, 0.70, -11.00, 2.91, 2.03, 9.42, repro,
2006-09-06,2.30, 1.14, -2.21, 2.90, 2.01, 9.35, repro,
2006-09-07,0.66, 0.82, 2.58, 3.05, 2.17, 10.02, repro,
2006-09-08,2.34, 1.27, 0.63, 3.10, 2.18, 9.83, repro,
2006-09-09,0.45, 0.15, 0.34, 3.03, 2.12, 9.87, repro,
2006-09-10,1.04, -0.03, 3.75, 3.50, 2.43, 11.11, repro,
2006-09-11,1.42, 0.22, -1.96, 3.38, 2.31, 10.62, repro,
2006-09-12,2.93, -0.54, 1.79, 3.20, 2.20, 9.92, repro,
2006-09-13,1.91, -0.81, 7.94, 3.23, 2.26, 10.23, repro,
2006-09-14,1.04, -0.77, 8.61, 4.06, 2.93, 13.06, repro,
2006-09-15,2.24, -0.91, 16.57, 4.58, 3.12, 13.03, repro,
2006-09-16,3.54, 1.66, 4.56, 4.07, 2.79, 11.87, repro,
2006-09-17,1.71, 0.83, 5.70, 2.99, 2.02, 9.15, repro,
2006-09-18,1.25, -0.31, 3.93, 3.74, 2.61, 11.56, repro,
2006-09-19,2.14, 1.12, 15.77, 3.64, 2.51, 11.31, repro,
2006-09-20,3.29, 1.21, 13.93, 3.83, 2.61, 12.03, repro,
2006-09-21,0.67, -1.05, 16.48, 4.30, 3.07, 12.66, repro,
2006-09-22,3.41, 0.24, 10.37, 3.81, 2.58, 11.38, repro,
2006-09-23,3.02, 1.37, 6.53, 3.48, 2.38, 10.71, repro,
2006-09-24,-0.14, -0.05, 1.99, 3.50, 2.42, 10.70, repro,
2006-09-25,0.68, 0.44, 7.84, 3.47, 2.39, 10.95, repro,
2006-09-26,0.19, 0.18, 1.11, 3.41, 2.39, 10.84, repro,
2006-09-27,1.71, 1.10, 2.57, 3.14, 2.20, 9.83, repro,
2006-09-28,1.13, 0.14, -1.35, 3.29, 2.30, 10.23, repro,
2006-09-29,0.72, 1.05, 9.00, 3.28, 2.30, 10.21, repro,
2006-09-30,0.58, 0.58, 9.11, 3.52, 2.45, 10.93, repro,
2006-10-01,-0.07, -1.76, 3.33, 3.64, 2.55, 11.37, repro,
2006-10-02,-0.18, 1.16, -2.46, 4.18, 3.22, 13.39, repro,
2006-10-03,0.83, 0.51, -0.55, 4.08, 3.06, 12.74, repro,
2006-10-04,-0.51, 1.60, 4.15, 3.76, 2.66, 11.85, repro,
2006-10-05,0.53, -0.05, -1.27, 3.59, 2.55, 11.41, repro,
2006-10-06,2.28, -1.01, -3.36, 4.51, 3.36, 15.05, repro,
2006-10-07,-1.80, 0.61, 8.10, 4.61, 3.34, 15.26, repro,
2006-10-08,5.83, 44.04, -23.53, 40.97, 216.31, 243.03, repro,
2006-10-09,-0.53, 0.76, -8.87, 3.31, 2.25, 9.78, repro,
2006-10-10,3.23, 1.87, -4.86, 2.61, 1.89, 8.52, repro,
2006-10-11,0.93, 2.07, -2.28, 2.80, 1.98, 9.02, repro,
2006-10-12,1.98, 0.89, -0.66, 3.29, 2.18, 9.98, repro,
2006-10-13,1.16, 0.78, 7.37, 3.93, 2.82, 12.94, repro,
2006-10-14,1.72, 1.58, -1.71, 3.57, 2.46, 11.62, repro,
2006-10-15,0.47, 3.35, 14.62, 9.75, 6.66, 34.20, repro,
2006-10-19,-4.29, -3.66, -1.73, 4.59, 3.38, 15.18, repro,
2006-10-20,7.29, 133.06, 3.56, 13.00, 8.24, 37.82, repro,
2006-10-21,-1.08, 0.41, -12.75, 3.74, 2.62, 12.51, repro,
2006-10-22,-0.09, 1.32, -5.87, 2.80, 2.01, 9.23, repro,
2006-10-23,0.90, 0.53, -9.53, 2.74, 2.02, 9.19, repro,
2006-10-24,-0.62, 0.40, -4.96, 2.99, 2.04, 9.54, repro,
2006-10-25,0.72, 0.15, -1.30, 2.44, 1.70, 7.74, repro,
2006-10-26,1.62, 0.32, -3.04, 2.26, 1.65, 7.38, repro,
2006-10-27,0.60, 1.15, -5.75, 2.28, 1.68, 7.40, repro,
2006-10-28,0.79, 0.58, -4.60, 2.37, 1.68, 7.66, repro,
2006-10-29,0.94, 1.32, 2.14, 2.21, 1.59, 7.22, repro,
2006-10-30,0.23, 1.31, -1.67, 2.18, 1.56, 7.00, repro,
2006-10-31,1.79, 0.78, -4.85, 2.25, 1.64, 7.35, repro,
2006-11-01,1.33, 1.42, -3.33, 2.55, 1.85, 8.25, repro,
2006-11-02,0.96, 1.03, -3.41, 2.23, 1.60, 7.26, repro,
2006-11-03,1.79, 0.93, -1.26, 2.31, 1.70, 7.59, repro,
2006-11-04,2.27, 1.68, -3.12, 2.35, 1.70, 7.56, repro,
2006-11-05,0.16, 1.13, 1.51, 2.33, 1.65, 7.44, repro,
2006-11-06,1.10, -0.30, -3.73, 2.18, 1.57, 7.07, repro,
2006-11-07,1.84, 0.83, 2.25, 2.42, 1.72, 7.65, repro,
2006-11-08,-0.17, 0.18, -1.55, 2.33, 1.64, 7.35, repro,
2006-11-09,1.91, 0.45, 2.63, 2.38, 1.70, 7.51, repro,
2006-11-10,1.95, 0.54, -4.96, 2.29, 1.60, 7.20, repro,
2006-11-11,2.46, 0.05, -3.28, 2.31, 1.63, 7.24, repro,
2006-11-12,1.18, 0.92, -2.90, 2.40, 1.70, 7.54, repro,
2006-11-13,2.71, 1.23, 8.80, 2.34, 1.65, 7.34, repro,
2006-11-14,1.45, 0.78, 3.94, 2.20, 1.55, 7.02, repro,
2006-11-15,0.69, 0.88, -0.26, 2.19, 1.56, 7.06, repro,
2006-11-16,0.08, 0.96, 2.26, 2.18, 1.56, 7.04, repro,
2006-11-17,0.56, 0.71, -5.14, 2.17, 1.55, 6.97, repro,
2006-11-18,1.18, 0.52, -5.77, 2.18, 1.56, 7.08, repro,
2006-11-19,1.77, 1.51, -8.87, 2.16, 1.56, 7.00, repro,
2006-11-20,2.02, 1.68, -4.98, 2.18, 1.55, 7.01, repro,
2006-11-21,1.37, 1.13, -4.89, 2.18, 1.57, 7.06, repro,
2006-11-22,2.17, 0.22, -3.89, 2.17, 1.57, 7.01, repro,
2006-11-23,1.68, 0.99, -6.13, 2.19, 1.60, 7.12, repro,
2006-11-24,0.47, -0.39, -9.03, 2.20, 1.61, 7.17, repro,
2006-11-25,1.89, 0.03, -7.10, 2.17, 1.56, 6.98, repro,
2006-11-26,1.85, 1.20, -4.07, 2.19, 1.57, 7.04, repro,
2006-11-27,3.43, 1.29, -1.33, 2.23, 1.58, 7.10, repro,
2006-11-28,1.04, 1.08, -5.01, 2.18, 1.57, 7.02, repro,
2006-11-29,1.37, 0.58, -13.16, 2.16, 1.56, 6.96, repro,
2006-11-30,2.20, 1.08, -11.42, 2.17, 1.56, 6.97, repro,
2006-12-01,0.69, 0.70, -14.95, 2.17, 1.56, 6.99, repro,
2006-12-02,0.50, 0.41, -17.65, 2.20, 1.57, 7.08, repro,
2006-12-03,-0.39, 0.70, -14.45, 2.25, 1.59, 7.16, repro,
2006-12-04,0.78, 0.35, -18.41, 2.22, 1.58, 7.06, repro,
2006-12-05,1.13, 0.74, -12.13, 2.25, 1.66, 7.31, repro,
2006-12-06,1.03, 0.86, -13.74, 2.34, 1.71, 7.61, repro,
2006-12-07,0.16, 1.40, -12.07, 2.27, 1.63, 7.33, repro,
2006-12-08,0.47, 0.87, -8.40, 2.25, 1.62, 7.31, repro,
2006-12-09,1.12, 0.69, -5.53, 2.37, 1.74, 7.78, repro,
2006-12-10,1.40, 0.39, -4.09, 2.24, 1.63, 7.25, repro,
2006-12-11,1.24, 0.05, -6.96, 2.18, 1.57, 6.99, repro,